Location: Dehesa de la Cepeda
(40.6574°N, 4.3013°W)
Time: 02:48:42
(UTC+00:00)

Courier 1B - Pass Details

Date: 06 August 2021
Orbit: 963 x 1209 km, 28.3° (Epoch: 17 September)

Event Time Altitude Azimuth Distance (km) Brightness Sun altitude
Rises 21:42:34 0° 260° (W) 4,108 11.2 -21.8°
Reaches altitude 10° 21:46:20 10° 244° (WSW) 3,133 10.3 -22.3°
Maximum altitude 21:51:34 20° 202° (SSW) 2,452 9.3 -23.0°
Enters shadow 21:52:14 19° 195° (SSW) 2,459 9.3 -23.0°
Drops below altitude 10° 21:56:43 10° 159° (SSE) 3,056 - -23.6°
Sets 22:00:20 0° 143° (SE) 3,975 - -24.0°
